Location: Newark
(47.5333°N, 8.7000°E)
Time: 17:12:53
(UTC+00:00)

BEESAT 3 - Pass Details

Date: 27 November 2020
Orbit: 491 x 509 km, 64.9° (Epoch: 14 January)

Event Time Altitude Azimuth Distance (km) Brightness Sun altitude
Exits shadow 03:49:03 25° 66° (ENE) 1,064 ? -29.5°
Drops below altitude 10° 03:50:57 10° 50° (NE) 1,737 ? -29.1°
Sets 03:53:12 0° 43° (NE) 2,626 ? -28.8°
